TimeCDT,TemperatureF,Dew PointF,Humidity,Sea Level PressureIn,VisibilityMPH,Wind Direction,Wind SpeedMPH,Gust SpeedMPH,PrecipitationIn,Events,Conditions,WindDirDegrees,DateUTC
12:58 AM,79.3,68.2,69,29.86,10.0,SSE,4.6,-,N/A,,Clear,150,2013-08-31 05:58:00
1:58 AM,78.4,68.5,72,29.85,10.0,SSE,5.8,-,N/A,,Clear,150,2013-08-31 06:58:00
2:58 AM,76.6,69.1,77,29.84,10.0,SSE,5.8,-,N/A,,Clear,150,2013-08-31 07:58:00
3:58 AM,75.2,69.6,83,29.83,10.0,SSE,5.8,-,N/A,,Clear,150,2013-08-31 08:58:00
4:58 AM,74.8,69.3,83,29.83,10.0,SSE,6.9,-,N/A,,Clear,150,2013-08-31 09:58:00
5:33 AM,73.4,69.8,88,29.88,9.0,SSE,5.8,-,N/A,,Clear,160,2013-08-31 10:33:00
5:43 AM,73.4,69.8,88,29.88,10.0,SSE,6.9,-,N/A,,Clear,160,2013-08-31 10:43:00
5:58 AM,73.4,69.1,86,29.84,10.0,SSE,8.1,-,N/A,,Clear,160,2013-08-31 10:58:00
6:58 AM,74.3,68.9,83,29.87,10.0,West,9.2,21.9,N/A,,Clear,280,2013-08-31 11:58:00
7:58 AM,75.9,69.3,80,29.88,10.0,Calm,Calm,-,N/A,,Clear,0,2013-08-31 12:58:00
8:34 AM,78.8,69.8,74,29.90,10.0,ESE,2.3,-,N/A,,Light Drizzle,120,2013-08-31 13:34:00
8:44 AM,78.8,71.6,78,29.90,10.0,SE,2.3,-,N/A,,Clear,130,2013-08-31 13:44:00
8:58 AM,79.5,70.5,74,29.86,10.0,SE,3.5,-,0.00,,Clear,130,2013-08-31 13:58:00
9:58 AM,85.6,68.2,56,29.85,10.0,Variable,3.5,-,N/A,,Clear,0,2013-08-31 14:58:00
10:58 AM,87.8,68.9,53,29.84,10.0,SE,6.9,-,N/A,,Scattered Clouds,130,2013-08-31 15:58:00
11:58 AM,91.9,68.4,46,29.83,10.0,SE,6.9,-,N/A,,Partly Cloudy,130,2013-08-31 16:58:00
12:58 PM,94.5,65.8,39,29.82,10.0,ESE,10.4,-,N/A,,Scattered Clouds,110,2013-08-31 17:58:00
1:58 PM,96.1,68.0,40,29.81,10.0,SSE,9.2,-,N/A,,Partly Cloudy,150,2013-08-31 18:58:00
2:58 PM,98.8,66.2,34,29.80,10.0,SE,9.2,-,N/A,,Clear,140,2013-08-31 19:58:00
3:58 PM,100.6,64.8,31,29.79,10.0,ESE,8.1,-,N/A,,Clear,110,2013-08-31 20:58:00
4:58 PM,101.5,61.0,26,29.77,10.0,SE,5.8,-,N/A,,Clear,140,2013-08-31 21:58:00
5:58 PM,100.6,60.4,27,29.76,10.0,SSE,6.9,-,N/A,,Clear,150,2013-08-31 22:58:00
6:58 PM,97.9,63.0,32,29.75,10.0,SE,5.8,-,N/A,,Clear,130,2013-08-31 23:58:00
7:58 PM,91.4,71.8,52,29.75,10.0,ESE,8.1,-,N/A,,Clear,120,2013-09-01 00:58:00
8:58 PM,88.2,71.4,57,29.77,10.0,SE,8.1,-,N/A,,Clear,130,2013-09-01 01:58:00
9:58 PM,84.6,70.2,62,29.78,10.0,SE,6.9,-,N/A,,Clear,140,2013-09-01 02:58:00
10:58 PM,84.4,68.7,59,29.77,10.0,SSE,6.9,-,N/A,,Clear,150,2013-09-01 03:58:00
11:58 PM,83.3,68.4,61,29.78,10.0,SSE,8.1,-,N/A,,Clear,160,2013-09-01 04:58:00